[[{"header":{"parameterUnit":"m.s-1","parameterCategory":1,"la1":30.2991,"la2":30.254,"lo1":-89.0895,"lo2":-89.0444,"dy":0.0017,"dx":0.0017,"nx":28,"ny":28,"refTime":"2026-02-09T09:00:00:Z","depth":0,"parameterNumber":2,"parameterNumberName":"U-component_of_WINDS"},"data":[0,0,0,0,0,0,0,0,0,0,0,0,0,0,0,0,0,0,0,0,0,0,0,0,0,0,0,0,0,0,0,0,0,0,0,0,0,0,0,0,0,0,0,0,0,0,0,0,0,0,0,0,0,0,0,0,0,0,0.4893,0.4895,0,0.5054,0.5056,0.5057,0.5124,0.5123,0.5123,0.5123,0.5291,0.5295,0.53,0,0,0,0,0,0,0,0,0,0,0,0,0,0.4646,0.465,0.4893,0.4895,0.4897,0.5053,0.5056,0.5058,0.5124,0.5123,0.5123,0.5123,0.5289,0.5295,0.5301,0,0,0,0,0,0,0,0,0,0,0,0,0,0.4775,0.4652,0.4892,0.4948,0.4955,0.5053,0.5056,0.5058,0.5124,0.5123,0.5123,0.5122,0.5287,0.5294,0.5301,0.5357,0,0,0.5323,0.5327,0,0,0,0,0,0,0,0,0.4767,0.4784,0.4938,0.4945,0.4952,0.5068,0.503,0.5159,0.5124,0.506,0.5123,0.5122,0.5217,0.523,0.5262,0.5364,0.5372,0.5324,0.5329,0.5332,0.5334,0,0,0,0,0,0,0,0.4758,0.4777,0.4957,0.494,0.4949,0.4967,0.4984,0.5055,0.514,0.5065,0.5071,0.5089,0.5221,0.5255,0.5266,0.5374,0.5324,0.533,0.5335,0.5338,0.5532,0.5533,0,0,0,0,0,0,0.474,0.4769,0.4951,0.4961,0.4857,0.4972,0.4991,0.5032,0.5139,0.5155,0.5089,0.5091,0.5243,0.5258,0.5272,0.5345,0.5332,0.5338,0.5342,0.5531,0.5532,0.5533,0,0,0,0,0,0,0.4734,0.4755,0.4945,0.4867,0.4892,0.4976,0.5021,0.5035,0.5068,0.5157,0.5173,0.5107,0.5243,0.5262,0.5335,0.5352,0.5342,0.5348,0.553,0.5532,0.5533,0.549,0,0,0,0,0,0,0.4727,0.4753,0.4774,0.4867,0.4896,0.5004,0.5022,0.5038,0.508,0.5085,0.5178,0.5193,0.5244,0.5324,0.5342,0.5362,0.5354,0.5529,0.5531,0.5532,0.549,0.549,0.5489,0,0,0,0,0,0.4718,0.4756,0.4774,0.4796,0.4924,0.5004,0.5022,0.5078,0.5081,0.5104,0.5161,0.519,0.5347,0.5331,0.5352,0.5374,0.5528,0.553,0.5532,0.5491,0.549,0.5489,0,0,0,0,0,0,0.4663,0.4769,0.4791,0.486,0.4922,0.5015,0.5045,0.5075,0.5139,0.5141,0.5209,0.523,0.5297,0.5343,0.5324,0.5434,0.544,0.5446,0.5401,0.5401,0.54,0.5388,0.536,0,0,0,0,0,0.4659,0.4714,0.4804,0.4856,0.4887,0.496,0.4998,0.5036,0.5104,0.5131,0.5194,0.526,0.5324,0.5365,0.5429,0.5497,0.5519,0.5523,0.5522,0.5521,0.5526,0.5567,0.5569,0.554,0.554,0.5539,0,0,0.4651,0.4715,0.4746,0.4847,0.49,0.4958,0.4982,0.5042,0.5086,0.5141,0.5214,0.5262,0.534,0.5411,0.5446,0.5451,0.5539,0.5523,0.5522,0.5527,0.5569,0.5571,0.5574,0.5541,0.5541,0.554,0,0,0.4666,0.472,0.4769,0.4822,0.4902,0.4951,0.4963,0.5052,0.5086,0.516,0.5203,0.5257,0.5366,0.5421,0.5462,0.5499,0.553,0.5518,0.5515,0.5554,0.5557,0.5559,0.5573,0.5577,0.5523,0.5523,0.5523,0,0.4646,0.4733,0.4792,0.4849,0.4893,0.4945,0.4996,0.5045,0.5142,0.5172,0.5177,0.5315,0.5372,0.5457,0.5466,0.5498,0.5515,0.5508,0.5551,0.5554,0.5558,0.5572,0.5577,0.5521,0.5521,0.5521,0.5521,0,0.4705,0.4765,0.4796,0.4888,0.4935,0.4989,0.5057,0.5098,0.5133,0.5181,0.5257,0.5327,0.5406,0.5429,0.5464,0.552,0.5521,0.5538,0.5546,0.5557,0.5572,0.5578,0.5518,0.5519,0.5519,0.552,0,0,0.469,0.4814,0.4824,0.4867,0.496,0.5008,0.5065,0.5142,0.5177,0.5242,0.5293,0.5385,0.5401,0.5448,0.549,0.5524,0.555,0.5537,0.5539,0.5537,0.5618,0.5605,0.561,0.557,0.5572,0.5573,0.5612,0,0.4718,0.4821,0.4876,0.4957,0.5014,0.5065,0.5116,0.5179,0.5226,0.5282,0.5336,0.54,0.5415,0.5445,0.5481,0.5539,0.5567,0.5537,0.562,0.5622,0.5599,0.5618,0.5605,0.5638,0.5618,0.5619,0.5619,0,0.4764,0.4828,0.4914,0.5002,0.5028,0.5072,0.5148,0.52,0.5274,0.5306,0.5359,0.54,0.5464,0.5467,0.5558,0.5536,0.5573,0.5607,0.561,0.562,0.5621,0.563,0.565,0.5655,0.5629,0.5628,0.5627,0,0.4744,0.4853,0.4919,0.4954,0.5057,0.5087,0.5132,0.5205,0.5248,0.5315,0.5344,0.5417,0.5458,0.5514,0.5575,0.5571,0.566,0.5667,0.5689,0.5688,0.5706,0.5704,0.5733,0.5729,0.5729,0.5729,0.5729,0,0.477,0.4821,0.4912,0.4952,0.5012,0.5075,0.5133,0.5182,0.5246,0.5298,0.5347,0.5396,0.5472,0.553,0.5578,0.5646,0.5664,0.5693,0.5705,0.5689,0.5685,0.5715,0.5714,0.573,0.573,0.5729,0.5729,0,0.4759,0.4821,0.4897,0.4988,0.5013,0.5052,0.5132,0.5174,0.5224,0.529,0.5309,0.5388,0.546,0.5525,0.562,0.5652,0.5722,0.5737,0.5696,0.5703,0.5722,0.572,0.5772,0.5782,0.5769,0.5769,0.5769,0,0.4771,0.4811,0.4907,0.4945,0.4989,0.505,0.5094,0.5159,0.5203,0.529,0.5323,0.5397,0.546,0.5572,0.5639,0.5713,0.573,0.5744,0.5742,0.5725,0.5732,0.5729,0.5734,0.5743,0.5742,0.5742,0.5742,0,0.4786,0.4816,0.4877,0.495,0.5001,0.5062,0.5124,0.5153,0.523,0.5278,0.535,0.5399,0.5496,0.5571,0.5652,0.57,0.5734,0.5742,0.5751,0.5735,0.5711,0.5725,0.5695,0.5741,0.5741,0.5741,0.5741,0.5741,0.4788,0.4827,0.4901,0.4968,0.5022,0.5079,0.5123,0.5179,0.5241,0.5324,0.5359,0.5433,0.5508,0.562,0.5668,0.5728,0.5735,0.5748,0.5752,0.5754,0.5752,0.57,0.5743,0.5743,0.5743,0.5744,0.5744,0,0.4807,0.4857,0.4918,0.5004,0.5057,0.5084,0.5155,0.5198,0.5262,0.5328,0.5389,0.5474,0.5547,0.5619,0.5696,0.5731,0.5749,0.5749,0.5747,0.5758,0.574,0.5725,0.5733,0.5733,0.5733,0.5733,0.5733,0.5733,0.4822,0.489,0.4928,0.5023,0.5074,0.5146,0.5184,0.5238,0.5291,0.5383,0.5443,0.549,0.556,0.5642,0.571,0.573,0.5757,0.5752,0.5777,0.5759,0.5759,0.5759,0.5745,0.5757,0.5758,0.579,0.579,0.579]},{"header":{"parameterUnit":"m.s-1","parameterCategory":1,"la1":30.2991,"la2":30.254,"lo1":-89.0895,"lo2":-89.0444,"dy":0.0017,"dx":0.0017,"nx":28,"ny":28,"refTime":"2026-02-09T09:00:00:Z","depth":0,"parameterNumber":3,"parameterNumberName":"V-component_of_WINDS"},"data":[0,0,0,0,0,0,0,0,0,0,0,0,0,0,0,0,0,0,0,0,0,0,0,0,0,0,0,0,0,0,0,0,0,0,0,0,0,0,0,0,0,0,0,0,0,0,0,0,0,0,0,0,0,0,0,0,0,0,2.0243,2.0243,0,2.0229,2.0229,2.0229,2.022,2.022,2.022,2.022,2.0203,2.0203,2.0203,0,0,0,0,0,0,0,0,0,0,0,0,0,2.0262,2.0261,2.0243,2.0243,2.0243,2.0229,2.0229,2.0229,2.022,2.022,2.022,2.022,2.0204,2.0203,2.0203,0,0,0,0,0,0,0,0,0,0,0,0,0,2.0251,2.0261,2.0243,2.0237,2.0236,2.0229,2.0229,2.0229,2.022,2.022,2.022,2.022,2.0204,2.0203,2.0203,2.02,0,0,2.0201,2.02,0,0,0,0,0,0,0,0,2.0252,2.0251,2.0238,2.0238,2.0237,2.0227,2.0229,2.0219,2.022,2.0226,2.022,2.022,2.0211,2.021,2.0207,2.0199,2.0198,2.0201,2.02,2.02,2.02,0,0,0,0,0,0,0,2.0253,2.0251,2.0238,2.0238,2.0237,2.0235,2.0233,2.0227,2.0219,2.0226,2.0225,2.0224,2.0211,2.0208,2.0207,2.0198,2.0201,2.02,2.02,2.0199,2.0189,2.0189,0,0,0,0,0,0,2.0255,2.0252,2.0238,2.0237,2.0244,2.0234,2.0233,2.023,2.0219,2.0218,2.0224,2.0223,2.0209,2.0207,2.0206,2.0204,2.02,2.0199,2.0199,2.0189,2.0189,2.0189,0,0,0,0,0,0,2.0255,2.0253,2.0239,2.0244,2.0242,2.0234,2.0231,2.023,2.0227,2.0218,2.0216,2.0223,2.0209,2.0207,2.0202,2.0203,2.0199,2.0199,2.0189,2.0189,2.0189,2.0198,0,0,0,0,0,0,2.0255,2.0254,2.0253,2.0244,2.0242,2.0235,2.0231,2.0229,2.0226,2.0225,2.0216,2.0214,2.0209,2.0203,2.0201,2.0202,2.0198,2.0189,2.0189,2.0189,2.0197,2.0198,2.0199,0,0,0,0,0,2.0256,2.0254,2.0252,2.0251,2.0241,2.0235,2.0234,2.0228,2.0226,2.0225,2.022,2.0215,2.0203,2.0203,2.0201,2.0201,2.0188,2.0189,2.0189,2.0197,2.0198,2.0199,0,0,0,0,0,0,2.0261,2.0253,2.0251,2.0247,2.0242,2.0234,2.0232,2.0229,2.0223,2.0223,2.0215,2.0213,2.0209,2.0204,2.0204,2.0199,2.0195,2.0195,2.0202,2.0203,2.0204,2.0205,2.0198,0,0,0,0,0,2.0262,2.0259,2.0252,2.0249,2.0247,2.024,2.0237,2.0233,2.0228,2.0225,2.0219,2.0213,2.0209,2.0205,2.02,2.0197,2.0195,2.0196,2.0197,2.0197,2.0197,2.0197,2.0197,2.019,2.019,2.019,0,0,2.0263,2.0259,2.0257,2.025,2.0246,2.0242,2.0238,2.0234,2.0232,2.0224,2.022,2.0215,2.0208,2.0205,2.0203,2.0201,2.0199,2.0198,2.0198,2.0198,2.0197,2.0198,2.0198,2.019,2.019,2.019,0,0,2.0264,2.026,2.0258,2.0255,2.0249,2.0245,2.0244,2.0237,2.0234,2.023,2.0225,2.0222,2.0213,2.0209,2.0206,2.0208,2.0204,2.0206,2.021,2.021,2.021,2.0211,2.0213,2.0213,2.0206,2.0206,2.0206,0,2.0266,2.0262,2.0257,2.0254,2.0252,2.0247,2.0245,2.0241,2.0234,2.0232,2.023,2.0221,2.0215,2.0212,2.0212,2.0209,2.0209,2.0207,2.0211,2.0211,2.0212,2.0213,2.0214,2.0207,2.0207,2.0207,2.0207,0,2.0265,2.0263,2.0261,2.0256,2.0254,2.0251,2.0246,2.0244,2.0241,2.0237,2.0233,2.0227,2.0222,2.022,2.0216,2.0216,2.0216,2.0212,2.0209,2.0213,2.0215,2.0215,2.0207,2.0207,2.0207,2.0207,0,0,2.0268,2.0262,2.0261,2.026,2.0254,2.0252,2.025,2.0246,2.0244,2.024,2.0238,2.0232,2.023,2.0226,2.0222,2.0222,2.0226,2.0219,2.0218,2.0221,2.0227,2.023,2.023,2.0223,2.0223,2.0223,2.0228,0,2.0268,2.0265,2.0262,2.026,2.0258,2.0254,2.0252,2.0248,2.0245,2.0243,2.0239,2.0236,2.0232,2.023,2.023,2.0225,2.0227,2.0225,2.0222,2.0222,2.0224,2.0231,2.0234,2.0238,2.0228,2.0228,2.0228,0,2.0268,2.0266,2.0264,2.0261,2.026,2.0259,2.0256,2.0253,2.025,2.0247,2.0245,2.0241,2.0239,2.0236,2.0234,2.0232,2.0231,2.0229,2.0229,2.0229,2.0225,2.0232,2.0239,2.0241,2.0229,2.0229,2.0229,0,2.0272,2.0268,2.0267,2.0266,2.0261,2.0261,2.0259,2.0255,2.0254,2.0251,2.025,2.0247,2.0245,2.0242,2.0238,2.0236,2.0237,2.0233,2.0235,2.0235,2.0235,2.0235,2.0244,2.0233,2.0233,2.0233,2.0233,0,2.0273,2.0272,2.0269,2.0268,2.0268,2.0264,2.0263,2.0261,2.0258,2.0257,2.0253,2.0252,2.0246,2.0245,2.0241,2.0241,2.0239,2.0238,2.0237,2.0239,2.0239,2.0238,2.0238,2.0234,2.0234,2.0233,2.0233,0,2.0276,2.0274,2.0273,2.027,2.0269,2.0269,2.0266,2.0266,2.0263,2.0262,2.0262,2.0257,2.0255,2.0251,2.0247,2.0245,2.0246,2.0244,2.0248,2.0247,2.025,2.025,2.0258,2.026,2.0248,2.0248,2.0248,0,2.0277,2.0277,2.0275,2.0275,2.0274,2.0273,2.0272,2.0269,2.0268,2.0265,2.0265,2.0263,2.0262,2.0259,2.0256,2.0253,2.0252,2.0255,2.0251,2.0254,2.0253,2.0254,2.0254,2.0256,2.0256,2.0256,2.0256,0,2.028,2.028,2.0279,2.0279,2.0278,2.0277,2.0276,2.0276,2.0272,2.0271,2.0271,2.027,2.0267,2.0266,2.0264,2.0262,2.0259,2.0257,2.0258,2.026,2.0262,2.0262,2.0251,2.0257,2.0257,2.0257,2.0257,2.0257,2.0283,2.0283,2.0283,2.0282,2.0282,2.0281,2.0281,2.028,2.0279,2.0278,2.0276,2.0276,2.0274,2.0271,2.0269,2.0269,2.0267,2.0268,2.0268,2.0268,2.027,2.0262,2.0268,2.0268,2.0268,2.0268,2.0268,0,2.0286,2.0286,2.0286,2.0286,2.0286,2.0285,2.0284,2.0284,2.0284,2.0283,2.0283,2.0282,2.0282,2.0279,2.0278,2.0279,2.0277,2.0278,2.0279,2.0279,2.0271,2.0271,2.028,2.028,2.028,2.028,2.028,2.028,2.0288,2.0289,2.0289,2.029,2.029,2.0291,2.0291,2.0291,2.029,2.029,2.029,2.0289,2.0288,2.0287,2.0287,2.0286,2.0286,2.0288,2.0287,2.028,2.0279,2.0278,2.0278,2.0288,2.0288,2.0295,2.0295,2.0295]}]]